Time,TemperatureF,DewpointF,PressureIn,WindDirection,WindDirectionDegrees,WindSpeedMPH,WindSpeedGustMPH,Humidity,HourlyPrecipIn,Conditions,Clouds,dailyrainin,SoftwareType,DateUTC
2013-02-22 00:01:00,23.0,19.0,30.04,ENE,64,0.0,-999.0,84,-99.99,,,-99.99,,2013-02-22 07:01:00,
2013-02-22 00:11:00,23.0,19.0,30.04,ENE,64,0.0,-999.0,84,-99.99,,,-99.99,,2013-02-22 07:11:00,
2013-02-22 00:21:00,23.0,19.0,30.04,ENE,64,0.0,-999.0,84,-99.99,,,-99.99,,2013-02-22 07:21:00,
2013-02-22 00:31:00,22.0,18.0,30.04,ENE,64,0.0,-999.0,85,-99.99,,,-99.99,,2013-02-22 07:31:00,
2013-02-22 00:42:00,22.0,18.0,30.04,ENE,64,0.0,-999.0,85,-99.99,,,-99.99,,2013-02-22 07:42:00,
2013-02-22 00:51:00,22.0,18.0,30.03,ENE,64,0.0,-999.0,85,-99.99,,,-99.99,,2013-02-22 07:51:00,
2013-02-22 01:01:00,21.0,17.0,30.03,ENE,64,0.0,-999.0,86,-99.99,,,-99.99,,2013-02-22 08:01:00,
2013-02-22 01:11:00,21.0,17.0,30.03,ENE,64,0.0,-999.0,86,-99.99,,,-99.99,,2013-02-22 08:11:00,
2013-02-22 01:21:00,21.0,17.0,30.03,ENE,64,0.0,-999.0,86,-99.99,,,-99.99,,2013-02-22 08:21:00,
2013-02-22 01:31:00,20.0,17.0,30.02,ENE,64,0.0,-999.0,87,-99.99,,,-99.99,,2013-02-22 08:31:00,
2013-02-22 01:42:00,20.0,17.0,30.02,ENE,64,0.0,-999.0,87,-99.99,,,-99.99,,2013-02-22 08:42:00,
2013-02-22 01:52:00,20.0,17.0,30.02,ENE,64,0.0,-999.0,87,-99.99,,,-99.99,,2013-02-22 08:52:00,
2013-02-22 02:03:00,20.0,17.0,30.02,ENE,64,0.0,-999.0,88,-99.99,,,-99.99,,2013-02-22 09:03:00,
2013-02-22 02:11:00,19.0,16.0,30.01,ENE,64,0.0,-999.0,88,-99.99,,,-99.99,,2013-02-22 09:11:00,
2013-02-22 02:21:00,19.0,16.0,30.01,ENE,64,0.0,-999.0,88,-99.99,,,-99.99,,2013-02-22 09:21:00,
2013-02-22 02:32:00,19.0,16.0,30.01,ENE,64,0.0,-999.0,88,-99.99,,,-99.99,,2013-02-22 09:32:00,
2013-02-22 02:42:00,19.0,16.0,30.01,ENE,64,0.0,-999.0,88,-99.99,,,-99.99,,2013-02-22 09:42:00,
2013-02-22 02:51:00,19.0,16.0,30.01,ENE,64,0.0,-999.0,88,-99.99,,,-99.99,,2013-02-22 09:51:00,
2013-02-22 03:01:00,18.0,15.0,30.01,ENE,64,0.0,-999.0,88,-99.99,,,-99.99,,2013-02-22 10:01:00,
2013-02-22 03:11:00,18.0,15.0,30.01,ENE,64,0.0,-999.0,88,-99.99,,,-99.99,,2013-02-22 10:11:00,
2013-02-22 03:21:00,18.0,15.0,30.00,ENE,64,0.0,-999.0,88,-99.99,,,-99.99,,2013-02-22 10:21:00,
2013-02-22 03:32:00,18.0,15.0,30.00,ENE,64,0.0,-999.0,89,-99.99,,,-99.99,,2013-02-22 10:32:00,
2013-02-22 03:42:00,18.0,15.0,30.00,ENE,64,0.0,-999.0,89,-99.99,,,-99.99,,2013-02-22 10:42:00,
2013-02-22 03:51:00,18.0,16.0,30.00,ENE,64,0.0,-999.0,90,-99.99,,,-99.99,,2013-02-22 10:51:00,
2013-02-22 04:01:00,18.0,16.0,30.00,ENE,64,0.0,-999.0,90,-99.99,,,-99.99,,2013-02-22 11:01:00,
2013-02-22 04:11:00,18.0,16.0,30.00,ENE,64,0.0,-999.0,90,-99.99,,,-99.99,,2013-02-22 11:11:00,
2013-02-22 04:21:00,19.0,17.0,30.01,ENE,64,0.0,-999.0,90,-99.99,,,-99.99,,2013-02-22 11:21:00,
2013-02-22 04:32:00,19.0,17.0,30.00,ENE,64,0.0,-999.0,90,-99.99,,,-99.99,,2013-02-22 11:32:00,
2013-02-22 04:42:00,19.0,17.0,30.00,ENE,64,0.0,-999.0,90,-99.99,,,-99.99,,2013-02-22 11:42:00,
2013-02-22 04:52:00,19.0,17.0,30.00,ENE,64,0.0,-999.0,90,-99.99,,,-99.99,,2013-02-22 11:52:00,
2013-02-22 05:02:00,18.0,15.0,30.00,ENE,64,0.0,-999.0,89,-99.99,,,-99.99,,2013-02-22 12:02:00,
2013-02-22 05:11:00,18.0,15.0,30.00,ENE,64,0.0,-999.0,89,-99.99,,,-99.99,,2013-02-22 12:11:00,
2013-02-22 05:22:00,18.0,15.0,30.00,ENE,64,0.0,-999.0,89,-99.99,,,-99.99,,2013-02-22 12:22:00,
2013-02-22 05:32:00,18.0,15.0,30.00,ENE,64,0.0,-999.0,89,-99.99,,,-99.99,,2013-02-22 12:32:00,
2013-02-22 05:42:00,18.0,15.0,30.00,ENE,64,0.0,-999.0,89,-99.99,,,-99.99,,2013-02-22 12:42:00,
2013-02-22 05:52:00,17.0,14.0,30.00,ENE,64,0.0,-999.0,89,-99.99,,,-99.99,,2013-02-22 12:52:00,
2013-02-22 06:02:00,17.0,14.0,30.00,ENE,64,0.0,-999.0,89,-99.99,,,-99.99,,2013-02-22 13:02:00,
2013-02-22 06:11:00,17.0,14.0,30.00,ENE,64,0.0,-999.0,89,-99.99,,,-99.99,,2013-02-22 13:11:00,
2013-02-22 06:22:00,17.0,15.0,30.00,ENE,64,0.0,-999.0,90,-99.99,,,-99.99,,2013-02-22 13:22:00,
2013-02-22 06:32:00,17.0,14.0,30.00,ENE,64,0.0,-999.0,89,-99.99,,,-99.99,,2013-02-22 13:32:00,
2013-02-22 06:42:00,17.0,14.0,30.00,ENE,64,0.0,-999.0,89,-99.99,,,-99.99,,2013-02-22 13:42:00,
2013-02-22 06:52:00,16.0,13.0,29.99,ENE,64,1.0,-999.0,89,-99.99,,,-99.99,,2013-02-22 13:52:00,
2013-02-22 07:01:00,16.0,14.0,30.00,ENE,64,0.0,-999.0,90,-99.99,,,-99.99,,2013-02-22 14:01:00,
2013-02-22 07:11:00,17.0,15.0,30.00,ENE,64,0.0,-999.0,91,-99.99,,,-99.99,,2013-02-22 14:11:00,
2013-02-22 07:21:00,17.0,15.0,30.00,ENE,64,0.0,-999.0,91,-99.99,,,-99.99,,2013-02-22 14:21:00,
2013-02-22 07:32:00,18.0,16.0,30.01,ENE,64,0.0,-999.0,90,-99.99,,,-99.99,,2013-02-22 14:32:00,
2013-02-22 07:42:00,18.0,16.0,30.01,ENE,64,0.0,-999.0,90,-99.99,,,-99.99,,2013-02-22 14:42:00,
2013-02-22 07:52:00,18.0,16.0,30.00,ENE,64,0.0,-999.0,90,-99.99,,,-99.99,,2013-02-22 14:52:00,
2013-02-22 08:01:00,17.0,14.0,30.00,ENE,64,0.0,-999.0,89,-99.99,,,-99.99,,2013-02-22 15:01:00,
2013-02-22 08:11:00,17.0,14.0,30.00,ENE,64,0.0,-999.0,89,-99.99,,,-99.99,,2013-02-22 15:11:00,
2013-02-22 08:21:00,17.0,14.0,30.00,ENE,64,0.0,-999.0,89,-99.99,,,-99.99,,2013-02-22 15:21:00,
2013-02-22 08:32:00,18.0,16.0,30.00,ENE,64,1.0,-999.0,90,-99.99,,,-99.99,,2013-02-22 15:32:00,
2013-02-22 08:42:00,18.0,16.0,30.00,ENE,64,1.0,-999.0,90,-99.99,,,-99.99,,2013-02-22 15:42:00,
2013-02-22 08:52:00,20.0,18.0,30.01,ENE,64,1.0,-999.0,90,-99.99,,,-99.99,,2013-02-22 15:52:00,
2013-02-22 09:01:00,21.0,18.0,30.00,ENE,64,2.0,-999.0,88,-99.99,,,-99.99,,2013-02-22 16:01:00,
2013-02-22 09:12:00,21.0,18.0,30.00,ENE,64,2.0,-999.0,88,-99.99,,,-99.99,,2013-02-22 16:12:00,
2013-02-22 09:21:00,22.0,19.0,29.99,ENE,64,3.0,-999.0,87,-99.99,,,-99.99,,2013-02-22 16:21:00,
2013-02-22 09:32:00,22.0,18.0,29.99,East,80,4.0,-999.0,85,-99.99,,,-99.99,,2013-02-22 16:32:00,
2013-02-22 09:42:00,22.0,18.0,29.99,East,80,4.0,-999.0,85,-99.99,,,-99.99,,2013-02-22 16:42:00,
2013-02-22 09:52:00,23.0,19.0,29.98,East,93,5.0,-999.0,85,-99.99,,,-99.99,,2013-02-22 16:52:00,
2013-02-22 10:01:00,25.0,21.0,29.97,ESE,103,4.0,-999.0,85,-99.99,,,-99.99,,2013-02-22 17:01:00,
2013-02-22 10:11:00,25.0,21.0,29.97,ESE,103,4.0,-999.0,85,-99.99,,,-99.99,,2013-02-22 17:11:00,
2013-02-22 10:21:00,27.0,22.0,29.97,ESE,111,5.0,-999.0,81,-99.99,,,-99.99,,2013-02-22 17:21:00,
2013-02-22 10:32:00,28.0,23.0,29.97,ESE,119,4.0,-999.0,80,-99.99,,,-99.99,,2013-02-22 17:32:00,
2013-02-22 10:42:00,28.0,23.0,29.97,ESE,119,4.0,-999.0,80,-99.99,,,-99.99,,2013-02-22 17:42:00,
2013-02-22 10:52:00,29.0,23.0,29.96,ESE,123,5.0,-999.0,78,-99.99,,,-99.99,,2013-02-22 17:52:00,
2013-02-22 11:01:00,31.0,24.0,29.96,SSE,151,4.0,-999.0,76,-99.99,,,-99.99,,2013-02-22 18:01:00,
2013-02-22 11:12:00,31.0,24.0,29.96,SSE,151,4.0,-999.0,76,-99.99,,,-99.99,,2013-02-22 18:12:00,
2013-02-22 11:22:00,33.0,25.0,29.95,South,173,5.0,-999.0,73,-99.99,,,-99.99,,2013-02-22 18:22:00,
2013-02-22 11:32:00,33.0,25.0,29.94,SSE,157,6.0,-999.0,71,-99.99,,,-99.99,,2013-02-22 18:32:00,
2013-02-22 11:42:00,33.0,25.0,29.94,SSE,157,6.0,-999.0,71,-99.99,,,-99.99,,2013-02-22 18:42:00,
2013-02-22 11:51:00,34.0,25.0,29.95,SSE,159,5.0,-999.0,69,-99.99,,,-99.99,,2013-02-22 18:51:00,
2013-02-22 12:01:00,34.0,25.0,29.94,SSW,199,4.0,-999.0,68,-99.99,,,-99.99,,2013-02-22 19:01:00,
2013-02-22 12:11:00,34.0,25.0,29.93,SSE,161,4.0,-999.0,68,-99.99,,,-99.99,,2013-02-22 19:11:00,
2013-02-22 12:21:00,34.0,25.0,29.93,SSE,161,4.0,-999.0,68,-99.99,,,-99.99,,2013-02-22 19:21:00,
2013-02-22 12:31:00,36.0,26.0,29.93,SE,140,5.0,-999.0,66,-99.99,,,-99.99,,2013-02-22 19:31:00,
2013-02-22 12:41:00,36.0,26.0,29.93,SE,140,5.0,-999.0,66,-99.99,,,-99.99,,2013-02-22 19:41:00,
2013-02-22 12:52:00,36.0,25.0,29.91,SE,145,6.0,-999.0,65,-99.99,,,-99.99,,2013-02-22 19:52:00,
2013-02-22 13:01:00,37.0,25.0,29.91,SSE,149,6.0,-999.0,62,-99.99,,,-99.99,,2013-02-22 20:01:00,
2013-02-22 13:11:00,37.0,25.0,29.91,SSE,149,6.0,-999.0,62,-99.99,,,-99.99,,2013-02-22 20:11:00,
2013-02-22 13:21:00,37.0,25.0,29.90,SSE,151,6.0,-999.0,62,-99.99,,,-99.99,,2013-02-22 20:21:00,
2013-02-22 13:32:00,38.0,25.0,29.89,SE,146,5.0,-999.0,60,-99.99,,,-99.99,,2013-02-22 20:32:00,
2013-02-22 13:41:00,38.0,25.0,29.89,SE,146,5.0,-999.0,60,-99.99,,,-99.99,,2013-02-22 20:41:00,
2013-02-22 13:52:00,39.0,26.0,29.88,SSE,148,5.0,-999.0,60,-99.99,,,-99.99,,2013-02-22 20:52:00,
2013-02-22 14:01:00,39.0,26.0,29.87,SSE,148,5.0,-999.0,59,-99.99,,,-99.99,,2013-02-22 21:01:00,
2013-02-22 14:11:00,39.0,26.0,29.87,SSE,148,5.0,-999.0,59,-99.99,,,-99.99,,2013-02-22 21:11:00,
2013-02-22 14:21:00,39.0,25.0,29.86,SSE,149,3.0,-999.0,58,-99.99,,,-99.99,,2013-02-22 21:21:00,
2013-02-22 14:32:00,40.0,25.0,29.85,SSE,147,5.0,-999.0,55,-99.99,,,-99.99,,2013-02-22 21:32:00,
2013-02-22 14:42:00,40.0,25.0,29.85,SSE,147,5.0,-999.0,55,-99.99,,,-99.99,,2013-02-22 21:42:00,
2013-02-22 14:52:00,41.0,26.0,29.85,SE,146,5.0,-999.0,54,-99.99,,,-99.99,,2013-02-22 21:52:00,
2013-02-22 15:01:00,41.0,24.0,29.84,SE,142,4.0,-999.0,51,-99.99,,,-99.99,,2013-02-22 22:01:00,
2013-02-22 15:11:00,41.0,24.0,29.84,SE,142,4.0,-999.0,51,-99.99,,,-99.99,,2013-02-22 22:11:00,
2013-02-22 15:21:00,41.0,23.0,29.84,SSE,154,3.0,-999.0,49,-99.99,,,-99.99,,2013-02-22 22:21:00,
2013-02-22 15:31:00,41.0,23.0,29.84,SSE,154,3.0,-999.0,49,-99.99,,,-99.99,,2013-02-22 22:31:00,
2013-02-22 15:41:00,41.0,23.0,29.84,SSE,154,3.0,-999.0,49,-99.99,,,-99.99,,2013-02-22 22:41:00,
2013-02-22 15:51:00,41.0,25.0,29.83,SSE,151,5.0,-999.0,52,-99.99,,,-99.99,,2013-02-22 22:51:00,
2013-02-22 16:01:00,41.0,25.0,29.83,SSE,151,5.0,-999.0,52,-99.99,,,-99.99,,2013-02-22 23:01:00,
2013-02-22 16:11:00,41.0,25.0,29.83,SSE,151,5.0,-999.0,52,-99.99,,,-99.99,,2013-02-22 23:11:00,
2013-02-22 16:21:00,42.0,24.0,29.83,SSE,152,3.0,-999.0,49,-99.99,,,-99.99,,2013-02-22 23:21:00,
2013-02-22 16:31:00,42.0,25.0,29.83,SSE,152,1.0,-999.0,51,-99.99,,,-99.99,,2013-02-22 23:31:00,
2013-02-22 16:41:00,42.0,25.0,29.83,SSE,152,1.0,-999.0,51,-99.99,,,-99.99,,2013-02-22 23:41:00,
2013-02-22 16:52:00,42.0,25.0,29.82,SSE,152,0.0,-999.0,50,-99.99,,,-99.99,,2013-02-22 23:52:00,
2013-02-22 17:01:00,42.0,24.0,29.82,SSE,152,1.0,-999.0,49,-99.99,,,-99.99,,2013-02-23 00:01:00,
2013-02-22 17:11:00,42.0,24.0,29.82,SSE,152,1.0,-999.0,49,-99.99,,,-99.99,,2013-02-23 00:11:00,
2013-02-22 17:21:00,42.0,23.0,29.82,SSE,152,3.0,-999.0,46,-99.99,,,-99.99,,2013-02-23 00:21:00,
2013-02-22 17:32:00,42.0,24.0,29.82,SSE,152,0.0,-999.0,48,-99.99,,,-99.99,,2013-02-23 00:32:00,
2013-02-22 17:42:00,42.0,24.0,29.82,SSE,152,0.0,-999.0,48,-99.99,,,-99.99,,2013-02-23 00:42:00,
2013-02-22 17:51:00,41.0,24.0,29.82,SSE,152,0.0,-999.0,51,-99.99,,,-99.99,,2013-02-23 00:51:00,
2013-02-22 18:01:00,38.0,23.0,29.82,SSE,152,0.0,-999.0,55,-99.99,,,-99.99,,2013-02-23 01:01:00,
2013-02-22 18:11:00,38.0,23.0,29.82,SSE,152,0.0,-999.0,55,-99.99,,,-99.99,,2013-02-23 01:11:00,
2013-02-22 18:21:00,35.0,22.0,29.82,SSE,152,0.0,-999.0,59,-99.99,,,-99.99,,2013-02-23 01:21:00,
2013-02-22 18:31:00,33.0,22.0,29.81,SSE,152,1.0,-999.0,64,-99.99,,,-99.99,,2013-02-23 01:31:00,
2013-02-22 18:42:00,33.0,22.0,29.81,SSE,152,1.0,-999.0,64,-99.99,,,-99.99,,2013-02-23 01:42:00,
2013-02-22 18:51:00,32.0,22.0,29.81,SSE,152,1.0,-999.0,66,-99.99,,,-99.99,,2013-02-23 01:51:00,
2013-02-22 19:01:00,32.0,23.0,29.81,SSE,152,0.0,-999.0,68,-99.99,,,-99.99,,2013-02-23 02:01:00,
2013-02-22 19:11:00,30.0,22.0,29.80,SSE,152,0.0,-999.0,71,-99.99,,,-99.99,,2013-02-23 02:11:00,
2013-02-22 19:21:00,30.0,22.0,29.80,SSE,152,0.0,-999.0,71,-99.99,,,-99.99,,2013-02-23 02:21:00,
2013-02-22 19:31:00,29.0,22.0,29.80,SSE,152,0.0,-999.0,74,-99.99,,,-99.99,,2013-02-23 02:31:00,
2013-02-22 19:42:00,29.0,22.0,29.80,SSE,152,0.0,-999.0,74,-99.99,,,-99.99,,2013-02-23 02:42:00,
2013-02-22 19:52:00,28.0,21.0,29.80,SSE,152,0.0,-999.0,76,-99.99,,,-99.99,,2013-02-23 02:52:00,
2013-02-22 20:01:00,27.0,21.0,29.80,SSE,152,0.0,-999.0,78,-99.99,,,-99.99,,2013-02-23 03:01:00,
2013-02-22 20:11:00,27.0,21.0,29.80,SSE,152,0.0,-999.0,78,-99.99,,,-99.99,,2013-02-23 03:11:00,
2013-02-22 20:21:00,27.0,21.0,29.79,SSE,152,0.0,-999.0,79,-99.99,,,-99.99,,2013-02-23 03:21:00,
2013-02-22 20:32:00,27.0,21.0,29.78,SSE,152,0.0,-999.0,78,-99.99,,,-99.99,,2013-02-23 03:32:00,
2013-02-22 20:42:00,27.0,21.0,29.78,SSE,152,0.0,-999.0,78,-99.99,,,-99.99,,2013-02-23 03:42:00,
2013-02-22 20:51:00,27.0,21.0,29.78,SSE,152,1.0,-999.0,78,-99.99,,,-99.99,,2013-02-23 03:51:00,
2013-02-22 21:01:00,27.0,21.0,29.78,SSE,152,0.0,-999.0,77,-99.99,,,-99.99,,2013-02-23 04:01:00,
2013-02-22 21:11:00,26.0,20.0,29.78,SSE,152,0.0,-999.0,78,-99.99,,,-99.99,,2013-02-23 04:11:00,
2013-02-22 21:21:00,26.0,20.0,29.78,SSE,152,0.0,-999.0,78,-99.99,,,-99.99,,2013-02-23 04:21:00,
2013-02-22 21:31:00,26.0,20.0,29.77,SSE,152,0.0,-999.0,79,-99.99,,,-99.99,,2013-02-23 04:31:00,
2013-02-22 21:41:00,26.0,20.0,29.77,SSE,152,0.0,-999.0,79,-99.99,,,-99.99,,2013-02-23 04:41:00,
2013-02-22 21:51:00,25.0,19.0,29.77,SSE,152,1.0,-999.0,79,-99.99,,,-99.99,,2013-02-23 04:51:00,
2013-02-22 22:02:00,25.0,20.0,29.77,SSE,152,1.0,-999.0,81,-99.99,,,-99.99,,2013-02-23 05:02:00,
2013-02-22 22:12:00,25.0,20.0,29.77,SSE,152,1.0,-999.0,81,-99.99,,,-99.99,,2013-02-23 05:12:00,
2013-02-22 22:22:00,25.0,20.0,29.77,SSE,152,0.0,-999.0,81,-99.99,,,-99.99,,2013-02-23 05:22:00,
2013-02-22 22:32:00,25.0,20.0,29.76,SSE,152,0.0,-999.0,81,-99.99,,,-99.99,,2013-02-23 05:32:00,
2013-02-22 22:42:00,25.0,20.0,29.76,SSE,152,0.0,-999.0,81,-99.99,,,-99.99,,2013-02-23 05:42:00,
2013-02-22 22:52:00,25.0,20.0,29.76,SSE,152,0.0,-999.0,82,-99.99,,,-99.99,,2013-02-23 05:52:00,
2013-02-22 23:01:00,24.0,19.0,29.75,SSE,152,0.0,-999.0,82,-99.99,,,-99.99,,2013-02-23 06:01:00,
2013-02-22 23:11:00,24.0,19.0,29.75,SSE,152,0.0,-999.0,82,-99.99,,,-99.99,,2013-02-23 06:11:00,
2013-02-22 23:22:00,24.0,20.0,29.75,SSE,152,1.0,-999.0,83,-99.99,,,-99.99,,2013-02-23 06:22:00,
2013-02-22 23:31:00,24.0,20.0,29.74,SSE,152,0.0,-999.0,83,-99.99,,,-99.99,,2013-02-23 06:31:00,
2013-02-22 23:41:00,24.0,20.0,29.74,SSE,152,0.0,-999.0,83,-99.99,,,-99.99,,2013-02-23 06:41:00,
2013-02-22 23:51:00,23.0,19.0,29.74,SSE,152,0.0,-999.0,83,-99.99,,,-99.99,,2013-02-23 06:51:00,